Weather History for Tijuana, Mexico

Change the Weather History Date:

Thursday, December 27, 2012

  Actual Average Record
Temperature  
Mean Temperature 52 °F -  
Max Temperature 57 °F 65 °F 80 °F (2013)
Min Temperature 46 °F 45 °F 37 °F (1997)
Degree Days  
Heating Degree Days 14    
Growing Degree Days 2 (Base 50)    
Moisture  
Dew Point 42 °F    
Average Humidity 72    
Maximum Humidity 93    
Minimum Humidity 51    
Precipitation  
Precipitation 0.00 in - - ()
Sea Level Pressure  
Sea Level Pressure 30.05 in    
Wind  
Wind Speed 4 mph ()    
Max Wind Speed 14 mph    
Max Gust Speed -    
Visibility 6.6 miles    
Events      
Averages and records for this station are not official NWS values.
T = Trace of Precipitation, MM = Missing Value Source: Averaged Metar Reports

Daily Weather History Graph

Daily Weather History Graph

Search for Another Location

Airport:

Trip Planner

Search our weather history database for the weather conditions in past years. The results will help you decide how hot, cold, wet, or windy it might be!

Date:

Astronomy

Dec. 27, 2012 Rise Set
Actual Time 6:48 AM PST 4:50 PM PST
Civil Twilight 6:21 AM PST 5:17 PM PST
Nautical Twilight 5:50 AM PST 5:48 PM PST
Astronomical Twilight 5:20 AM PST 6:18 PM PST
Moon 4:35 PM PST (12/27) 6:04 AM PST (12/27)
Length of Visible Light 10h 56m
Length of Day
10h 01m
Full, 100% of the Moon is Illuminated
Dec 27
Full
Dec 28
Full
Jan 4
Last Quarter
Jan 11
New
Jan 18
First Quarter

Hourly Weather History & Observations

Time (PST) Temp. Windchill Dew Point Humidity Pressure Visibility Wind Dir Wind Speed Gust Speed Precip Events Conditions
12:50 AM 50.0 °F - 44.6 °F 82% 30.05 in 6.0 mi East 4.6 mph - N/A   Mostly Cloudy
1:50 AM 50.0 °F - 44.6 °F 82% 30.02 in 6.0 mi West 6.9 mph - N/A   Mostly Cloudy
2:51 AM 50.0 °F - 44.6 °F 82% 30.02 in 6.0 mi NW 5.8 mph - N/A   Scattered Clouds
3:50 AM 48.2 °F - 42.8 °F 82% 30.04 in 6.0 mi Calm Calm - N/A   Mostly Cloudy
4:40 AM 48.2 °F - 44.6 °F 87% 29.99 in 6.0 mi Calm Calm - N/A   Mostly Cloudy
5:51 AM 46.4 °F - 44.6 °F 93% 30.00 in 6.0 mi Calm Calm - N/A   Mostly Cloudy
6:47 AM 48.2 °F - 44.6 °F 87% 30.04 in 7.0 mi East 3.5 mph - N/A   Mostly Cloudy
8:48 AM 53.6 °F - 44.6 °F 72% 30.05 in 7.0 mi SSE 4.6 mph - N/A   Scattered Clouds
9:41 AM 55.4 °F - 44.6 °F 67% 30.06 in 7.0 mi North 4.6 mph - N/A   Scattered Clouds
10:48 AM 55.4 °F - 37.4 °F 51% 30.05 in 7.0 mi West 10.4 mph - N/A   Scattered Clouds
12:49 PM 57.2 °F - 39.2 °F 51% 30.03 in 7.0 mi NW 11.5 mph - N/A   Scattered Clouds
1:43 PM 57.2 °F - 41.0 °F 55% 30.01 in 8.0 mi West 10.4 mph - N/A   Scattered Clouds
2:41 PM 57.2 °F - 39.2 °F 51% 30.01 in 7.0 mi WNW 13.8 mph - N/A   Scattered Clouds
3:42 PM 55.4 °F - 39.2 °F 54% 30.05 in 7.0 mi West 10.4 mph - N/A   Scattered Clouds
4:41 PM 53.6 °F - 41.0 °F 62% 30.04 in 7.0 mi WSW 6.9 mph - N/A   Scattered Clouds
5:50 PM 50.0 °F - 41.0 °F 71% 30.06 in 6.0 mi Calm Calm - N/A   Clear
6:41 PM 50.0 °F - 42.8 °F 76% 30.09 in 6.0 mi North 13.8 mph - N/A   Partly Cloudy
7:41 PM 48.2 °F - 41.0 °F 76% 30.08 in 6.0 mi Calm Calm - N/A   Clear
8:42 PM 46.4 °F - 41.0 °F 81% 30.10 in 6.0 mi Calm Calm - N/A   Clear
9:46 PM 48.2 °F - 41.0 °F 76% 30.13 in 7.0 mi Calm Calm - N/A   Clear
10:45 PM 46.4 °F 43.5 °F 41.0 °F 81% 30.12 in 8.0 mi East 5.8 mph - N/A   Clear